Location: Unspecified
(0.0000°N, 0.0000°E)
Time: 08:34:04
(UTC+00:00)

STARLINK-32002 - Pass Details

Date: 18 December 2025
Orbit: 475 x 476 km, 53.2° (Epoch: 18 January)

Event Time Altitude Azimuth Distance (km) Brightness Sun altitude
Exits shadow 04:47:04 24° 337° (NNW) 1,002 4.5 -15.9°
Maximum altitude 04:49:06 70° 56° (NE) 504 3.5 -15.4°
Drops below altitude 10° 04:52:47 10° 140° (SE) 1,637 7.1 -14.6°
Sets 04:54:57 0° 143° (SE) 2,517 8.1 -14.1°
